NOAA 16 DEB, 41215

Orbit data source: Space-Track

NOAA 16 DEB, 41215 is space debris in SSO originally from a launch on Thu, 21 Sep 2000 UTC launched from the Air Force Western Test Range (AFWTR). Debris objects in space refer to the collection of defunct objects orbiting the Earth. Examples of debris include non-operational satellites, rocket bodies, and fragments generated from explosions, collisions, or faulty payload assembly.

Loading next visibility...
Identifier
41215, 2000-055DU
Orbit
SSO
Country
Flag of USUS
Related business
Manufacturer
Unknown
Mission
Spacecraft
Bus & Motor
Unknown
Mass
Unknown
Launch date (UTC)
2000-09-21 (25 years ago)
Launch vehicle
Unknown
Launch site
Air Force Western Test Range (AFWTR)
Object type
Payload
Rocket body
Debris
Shape & HBR
Unknown shape, 0.1 m
Radar Cross Section
Small (<0.1 m²)

Expand to show TLE details & history
Last TLE update: 2 days ago

TLE from 2 days ago
0 NOAA 16 DEB
1 41215U 00055DU  25351.30597624  .00007448  00000-0  20297-2 0  9990
2 41215  98.8065 120.3245 0022814 261.0174  98.8435 14.47535507521158
Epoch: 2025-12-17T07:20Z
TLE epoch observation values (Epoch: 2025-12-17T07:20:36.347Z)
Latitude
-0°
Longitude
-76.00468°
Altitude
739.189 km
Speed
7.484 km/s
True Right ascension
08h 01m 17s
True Declination
0° 00' 00"
Sunlit
Object was in full shadow at epoch
Visualization orbit readout
Latitude
Unknown
Longitude
Unknown
Altitude
Unknown
Speed
Unknown
Apparent Right ascension
Unknown
Apparent Declination
Unknown
Sunlit
N/A
Visualization observer readout
Local Sidereal Time
19:27:19
Azimuth
Unknown
Elevation
Unknown
Doppler factor
Unknown
Orbital elements
Apogee altitude
747.054 km
Perigee altitude
714.617 km
Semi-major axis
7,108.973 km
Eccentricity
0.00228
Inclination
98.8065°
RAAN
120.3245°
Arg. of periapsis
261.0174°
True anomaly
99.10171°
Mean anomaly
98.8435°
Eccentric anomaly
98.97262°
Mean motion
3.62104 °/min
Orbital period
99.42 mins
BSTAR
0.0020297
Loading maneuver chart data...
Computing Atmospheric mass density...
Loading historical data...
Loading historical data...
Loading historical data...
Loading historical data...
Loading historical data...
Loading historical data...
Loading historical data...

Documentation

Showing up to 5 results
|